{"data":{"norad_id":39487,"intl_designator":"2013-077A","name":"EXPRESS-AM5","alt_names":[],"object_type":"PAYLOAD","status":"ACTIVE","operator":null,"country":"CIS","launch_date":"2013-12-26","launch_site_code":"TYMSC","launch_vehicle":null,"mission":null,"orbit_class":"UNKNOWN","rcs_meters":50.1187,"size_class":null,"mass_kg":null,"dimensions":null,"purposes":["comms"],"wikipedia_slug":null,"has_3d_model":false,"image_url":null,"decayed_at":null,"tle_current":{"epoch":"2026-09-19T21:03:27.808416Z","epoch_age_seconds":79431,"freshness":"FRESH","line1":"1 39487U 13077A   26262.87740519 -.00000284  00000+0  00000+0 0  9991","line2":"2 39487   0.0304 252.5902 0002128 235.2818 326.8117  1.00272070 47308","mean_motion":1.0027207,"eccentricity":0.0002128,"inclination_deg":0.0304,"raan_deg":252.5902,"arg_perigee_deg":235.2818,"mean_anomaly_deg":326.8117,"bstar":0,"rev_number":4730,"period_min":1436.0928222585,"perigee_km":35777.542427575,"apogee_km":35795.487703494,"semimajor_km":42164.652065534,"source":"CELESTRAK","updated_at":"2026-09-20T09:00:35.208154Z"}}}